Miscellaneous Local Product
Issued by NWS North Platte, NE

Home | Current Version | Previous Version | Text Only | Print | Product List | Glossary On
Versions: 1 2 3 4 5 6 7 8 9 10 11 12 13 14 15 16 17 18 19 20 21 22 23 24 25 26 27 28 29 30 31 32 33 34 35 36 37 38 39 40 41 42 43 44 45 46 47 48 49 50
826
AXUS43 KLBF 311910
MISLBF


WESTERN AND NORTH CENTRAL NEBRASKA HOURLY WEATHER ROUNDUP
NATIONAL WEATHER SERVICE NORTH PLATTE NE
200 PM CDT TUE MAY 31 2016

NOTE: "FAIR" INDICATES FEW OR NO CLOUDS BELOW 12,000 FEET WITH NO
SIGNIFICANT WEATHER AND/OR OBSTRUCTIONS TO VISIBILITY.

NOTE: STATIONS NOT REPORTING VARIABLES SUCH AS SKY/WEATHER OR
PRESSURE ARE PROVIDED BY RAWS AND APRS NETWORKS AND ARE NOT UNDER
NATIONAL WEATHER SERVICE QUALITY CONTROL.

...OBSERVATIONS IN AND NEAR THE EASTERN PANHANDLE OF NEBRASKA...

CITY           SKY/WX    TMP DP  RH WIND       PRES   REMARKS
PINE RIDGE     SUNNY     69  32  25 W26G36    30.00F
CHADRON        MOSUNNY   70  34  26 W18G35    30.02F
ALLIANCE       SUNNY     67  38  34 W17       30.04F
SIDNEY         CLOUDY    59  42  53 NW6       30.11F
CRESCENT LAKE    N/A     61  40  46 SW10        N/A
BIG SPRINGS      N/A     60  49  66 NW3         N/A
$$

...OBSERVATIONS IN NORTHERN NEBRASKA AND FAR SOUTHERN SOUTH DAKOTA...

CITY           SKY/WX    TMP DP  RH WIND       PRES   REMARKS
WINNER         FAIR      73  39  29 W21G30    29.90F
VALENTINE      SUNNY     71  39  31 W24G35    29.96F
THEDFORD       CLOUDY    68  50  51 SW12G18   30.02F
AINSWORTH      SUNNY     70  42  35 W20G26    29.97F
O`NEILL        MOSUNNY   69  43  40 SW8G16    29.98F
ORD            CLOUDY    70  41  34 W6        29.99F
BROKEN BOW     CLOUDY    64  44  48 W5        30.02F
BUTTE            N/A     68  47  47 SW16G24     N/A
CHAMBERS         N/A     74  46  36 S6          N/A
EWING            N/A     68  46  45 W3          N/A
$$

...OBSERVATIONS IN SOUTHWEST NEBRASKA AND FAR NORTHEAST COLORADO...

CITY           SKY/WX    TMP DP  RH WIND       PRES   REMARKS
WRAY           FAIR      66  41  39 CALM      30.09F
HOLYOKE        FAIR      64  43  45 NE5       30.10S
IMPERIAL       MOSUNNY   64  44  48 CALM      30.07F
OGALLALA       CLOUDY    63  46  53 NW5       30.07F
NORTH PLATTE   MOSUNNY   66  44  45 NW6       30.06F
MCCOOK         SUNNY     69  46  43 N7        30.05F
LEXINGTON      PTSUNNY   67  48  50 N6        30.04S
PAXTON           N/A     61  51  70 CALM        N/A
STAPLETON        N/A     63  48  59 CALM        N/A
GOTHENBURG       N/A     65  38  36 NW7         N/A
CALLAWAY         N/A     63  42  47 N5          N/A
$$

...OBSERVATIONS IN CENTRAL LINCOLN COUNTY AREA...

CITY           SKY/WX    TMP DP  RH WIND       PRES   REMARKS
N.P. AIRPORT   MOSUNNY   66  44  45 NW6       30.06F
N.P. DOWNTOWN    N/A     65  42  43 W5          N/A
N.P. HILLCREST   N/A     65  47  51 W5          N/A
$$

...SOME OBSERVATIONS FROM AROUND THE REGION...

CITY           SKY/WX    TMP DP  RH WIND       PRES   REMARKS
DENVER         PTSUNNY   59  48  67 E14G20    30.10F
LARAMIE        CLOUDY    56  37  49 N16       30.15F
CHEYENNE       MOSUNNY   60  41  49 E6        30.11F
SCOTTSBLUFF    MOSUNNY   67  40  37 W9G20     30.07F
RAPID CITY     CLOUDY    63  38  39 W20G30    29.96S
BISMARCK       LGT RAIN  58  51  78 W17       29.67F
PIERRE         MOSUNNY   68  42  38 W28G38    29.87F
SIOUX FALLS    PTSUNNY   68  46  45 W12G23    29.91F
OMAHA          CLOUDY    73  60  63 NW10      29.92F
GRAND ISLAND   SUNNY     72  48  42 NW10      30.00F
KANSAS CITY    CLOUDY    75  64  68 W3        29.92F
WICHITA        MOSUNNY   77  62  59 NE13      29.92F
OKLAHOMA CITY  PTSUNNY   80  66  62 E6        29.88F
DALLAS         CLOUDY    84  68  58 S6        29.85S
AMARILLO       MOSUNNY   73  52  47 NE13      30.00F
DODGE CITY     CLOUDY    71  60  68 NE10      30.00F
HAYS           MOSUNNY   72  55  56 N14G22    29.99F
GOODLAND       MOSUNNY   67  48  50 N7        30.06F
$$




USA.gov is the U.S. government's official web portal to all federal, state and local government web resources and services.